Skip Navigation Links
NOAA logo - Click to go to the NOAA homepage
NOAA's National Weather Service
Alaska Aviation Weather Unit
  NWS logo - Click to go to the NWS homepage
Left Navbar Graphic     10 AKDT = 18 GMT

   
NOAA is celebrating 200 years of science, service, and stewardship. Visit the NOAA 200th celebration Web site to learn more.
USA.gov is the U.S. Government's official Web portal to all Federal, state and local government Web resources and services.
Facebook
NWS on Facebook

Important Change Regarding the AAWU Web Presence

 

Over the last several months, the AAWU has been working to navigate its webpages to a nationally supported server. Security, as well as other needs, have necessitated the change.  We have been given an extension for the site changeover while we diligently work at addressing feedback received. As of July 14, 2017, aawu.arh.noaa.gov will be discontinued. The new AAWU web address is weather.gov/aawu. It is now live and will run in-parallel with the old site until it is discontinued on July 14, 2017. Please continue to send any feedback or questions regarding the new webpages to nws.ar.aawu.webauthors@noaa.gov.  Thank you for your patience during this time of transition.
AAWU Home :: Display TAF Add Bookmark
TAF PAOT 261728Z 2618/2718  04004KT P6SM SKC
     FM262200 31004KT P6SM FEW100 FEW200
     FM271000 36005KT P6SM FEW200
     FM271500 06004KT P6SM SCT100 BKN200=

3365
FTAK31 PAFA 261728
TAFAMC
TAF
METAR PAOT 261253Z AUTO 02010KT 10SM CLR M01/M05 A3006=

METAR PAOT 261353Z AUTO 01008KT 10SM CLR M01/M04 A3006=

METAR PAOT 261453Z 03006KT 10SM CLR M02/M04 A3007=

METAR PAOT 261553Z 06005KT 10SM CLR M02/M04 A3006=

METAR PAOT 261653Z 04004KT 10SM CLR M02/M04 A3007=

METAR PAOT 261753Z 06005KT 10SM CLR M01/M04 A3007=


NOAA's National Weather Service
Alaska Aviation Weather Unit
6930 Sand Lake Road
Anchorage, AK 99502-1845
Disclaimer
Credits
Glossary
Privacy Policy
About Us
Career Opportunities
Contact AAWU Internet Services Site last modified: April, 17th 2012